[[{"header":{"parameterUnit":"m.s-1","parameterCategory":1,"la1":30.2991,"la2":30.254,"lo1":-89.0895,"lo2":-89.0444,"dy":0.0017,"dx":0.0017,"nx":28,"ny":28,"refTime":"2025-07-18T03:00:00:Z","depth":0,"parameterNumber":2,"parameterNumberName":"U-component_of_WINDS"},"data":[0,0,0,0,0,0,0,0,0,0,0,0,0,0,0,0,0,0,0,0,0,0,0,0,0,0,0,0,0,0,0,0,0,0,0,0,0,0,0,0,0,0,0,0,0,0,0,0,0,0,0,0,0,0,0,0,0,0,2.3599,2.3599,0,2.3587,2.3587,2.3587,2.3515,2.3513,2.3511,2.351,2.3497,2.3498,2.3499,0,0,0,0,0,0,0,0,0,0,0,0,0,2.3557,2.3558,2.3599,2.3599,2.3599,2.3587,2.3587,2.3587,2.3515,2.3513,2.3511,2.3509,2.3496,2.3498,2.3499,0,0,0,0,0,0,0,0,0,0,0,0,0,2.3563,2.3558,2.3599,2.3562,2.3558,2.3587,2.3587,2.3587,2.3516,2.3513,2.351,2.3508,2.3496,2.3498,2.3499,2.3563,0,0,2.3505,2.3506,0,0,0,0,0,0,0,0,2.3563,2.3565,2.3567,2.3564,2.356,2.355,2.3567,2.3579,2.3516,2.3532,2.351,2.3507,2.3516,2.3516,2.352,2.3563,2.3562,2.3505,2.3507,2.3507,2.3508,0,0,0,0,0,0,0,2.3562,2.3565,2.3594,2.3567,2.3563,2.3544,2.3542,2.3569,2.3539,2.353,2.3525,2.3525,2.3514,2.3518,2.3519,2.3562,2.3505,2.3507,2.3508,2.3509,2.3652,2.3655,0,0,0,0,0,0,2.3568,2.3565,2.3595,2.3594,2.3555,2.3547,2.3545,2.3556,2.3538,2.3533,2.3527,2.3521,2.3516,2.3517,2.3518,2.3588,2.3507,2.3509,2.351,2.3649,2.3653,2.3656,0,0,0,0,0,0,2.3567,2.3571,2.3595,2.3578,2.358,2.3551,2.3563,2.3557,2.3561,2.3536,2.353,2.3537,2.3514,2.3516,2.3552,2.3587,2.351,2.3512,2.3646,2.365,2.3654,2.3732,0,0,0,0,0,0,2.3566,2.3571,2.3596,2.3579,2.3581,2.363,2.3566,2.3559,2.3565,2.3557,2.3544,2.3539,2.3512,2.3549,2.3554,2.3588,2.3513,2.3643,2.3648,2.3653,2.3726,2.3738,2.3748,0,0,0,0,0,2.3565,2.3619,2.3598,2.3602,2.3611,2.3632,2.3633,2.3602,2.3568,2.3592,2.3575,2.3539,2.3583,2.3554,2.3558,2.3594,2.3641,2.3647,2.3652,2.3721,2.3736,2.3748,0,0,0,0,0,0,2.3641,2.3616,2.3592,2.3643,2.364,2.362,2.3649,2.3619,2.3626,2.3618,2.3579,2.3576,2.3618,2.361,2.3577,2.3653,2.3605,2.3613,2.3656,2.367,2.3681,2.3681,2.3515,0,0,0,0,0,2.3664,2.3684,2.3661,2.3707,2.3707,2.3679,2.3687,2.3663,2.3658,2.3656,2.3642,2.3639,2.3651,2.3661,2.3671,2.3725,2.3719,2.3752,2.3763,2.3772,2.3778,2.3802,2.3815,2.3675,2.3675,2.3675,0,0,2.3711,2.37,2.3715,2.3722,2.3717,2.3737,2.3678,2.3702,2.3716,2.366,2.3692,2.3682,2.3675,2.372,2.3738,2.3714,2.3816,2.378,2.3787,2.3788,2.381,2.3823,2.3835,2.3679,2.3679,2.3678,0,0,2.3806,2.3802,2.3838,2.3834,2.3826,2.3807,2.3816,2.38,2.379,2.3822,2.378,2.3795,2.3819,2.3814,2.3815,2.3907,2.3873,2.3911,2.3969,2.3993,2.4004,2.4013,2.4043,2.4054,2.3918,2.3918,2.3918,0,2.3866,2.3894,2.3861,2.3886,2.3889,2.384,2.3875,2.3872,2.3869,2.3872,2.3845,2.3871,2.3864,2.3904,2.3926,2.393,2.3937,2.3912,2.4005,2.4014,2.4023,2.405,2.4061,2.3922,2.3922,2.3921,2.3921,0,2.3965,2.3986,2.4016,2.4013,2.402,2.4051,2.402,2.4031,2.4006,2.3989,2.402,2.4009,2.4014,2.4023,2.4,2.406,2.4044,2.4012,2.3964,2.4041,2.4066,2.4076,2.3929,2.3927,2.3926,2.3925,0,0,2.4109,2.4085,2.4096,2.4093,2.408,2.4095,2.4122,2.4127,2.4136,2.4135,2.4155,2.4175,2.4144,2.4146,2.4121,2.4143,2.4211,2.4107,2.4106,2.4124,2.4273,2.4295,2.4308,2.419,2.4192,2.4193,2.4272,0,2.4197,2.4242,2.4211,2.4261,2.4277,2.4229,2.4253,2.4247,2.4231,2.4242,2.4224,2.4238,2.4198,2.4198,2.4217,2.4199,2.424,2.4193,2.4206,2.4206,2.4206,2.4321,2.4345,2.442,2.4282,2.4284,2.4285,0,2.4306,2.4308,2.436,2.4341,2.4346,2.4368,2.4368,2.438,2.4372,2.4359,2.4359,2.4328,2.4352,2.4306,2.4336,2.4305,2.4308,2.43,2.4302,2.43,2.4248,2.4319,2.4444,2.4454,2.4301,2.4299,2.4298,0,2.4401,2.4417,2.4449,2.4448,2.4428,2.4443,2.4436,2.4424,2.4428,2.4429,2.4431,2.4435,2.4436,2.4439,2.4409,2.4379,2.4442,2.4395,2.443,2.443,2.4443,2.4442,2.4568,2.4451,2.4451,2.4451,2.445,0,2.4501,2.4533,2.449,2.451,2.4543,2.4508,2.4542,2.4529,2.4519,2.4534,2.4494,2.4508,2.4469,2.4479,2.4456,2.4483,2.4485,2.4473,2.4466,2.4475,2.4476,2.4475,2.4467,2.4454,2.4453,2.4452,2.4452,0,2.4611,2.4585,2.4615,2.4593,2.4588,2.4614,2.4594,2.461,2.4591,2.461,2.4612,2.4583,2.4592,2.4563,2.4568,2.4553,2.4591,2.4577,2.4593,2.4588,2.4623,2.4619,2.4749,2.4763,2.4641,2.4642,2.4643,0,2.4676,2.4699,2.4678,2.4685,2.4679,2.4691,2.4694,2.466,2.4664,2.4655,2.4672,2.4678,2.468,2.4697,2.4675,2.4678,2.4662,2.4708,2.4662,2.4669,2.4659,2.4656,2.4657,2.4716,2.4718,2.4719,2.472,0,2.4791,2.4776,2.4782,2.4783,2.4788,2.4788,2.4784,2.4792,2.4754,2.4762,2.477,2.4773,2.4777,2.4782,2.478,2.4771,2.4738,2.4735,2.4742,2.475,2.4757,2.475,2.4615,2.4731,2.473,2.4729,2.4729,2.4728,2.4878,2.4895,2.4882,2.489,2.4883,2.488,2.4893,2.4875,2.4882,2.4882,2.4862,2.4874,2.4862,2.4856,2.485,2.4858,2.4837,2.4849,2.4851,2.4854,2.4858,2.4759,2.4858,2.4857,2.4857,2.4857,2.4857,0,2.4988,2.4977,2.4985,2.498,2.4985,2.4955,2.4949,2.4955,2.4966,2.4958,2.4961,2.497,2.4974,2.4953,2.4954,2.4964,2.4949,2.4965,2.4963,2.496,2.4879,2.4871,2.4977,2.4977,2.4977,2.4977,2.4977,2.4977,2.5046,2.5072,2.5055,2.5076,2.5065,2.5076,2.5075,2.5071,2.5064,2.5075,2.5079,2.5065,2.505,2.505,2.5052,2.5045,2.5046,2.5067,2.5055,2.4978,2.4967,2.4955,2.4947,2.5068,2.5068,2.5135,2.5135,2.5136]},{"header":{"parameterUnit":"m.s-1","parameterCategory":1,"la1":30.2991,"la2":30.254,"lo1":-89.0895,"lo2":-89.0444,"dy":0.0017,"dx":0.0017,"nx":28,"ny":28,"refTime":"2025-07-18T03:00:00:Z","depth":0,"parameterNumber":3,"parameterNumberName":"V-component_of_WINDS"},"data":[0,0,0,0,0,0,0,0,0,0,0,0,0,0,0,0,0,0,0,0,0,0,0,0,0,0,0,0,0,0,0,0,0,0,0,0,0,0,0,0,0,0,0,0,0,0,0,0,0,0,0,0,0,0,0,0,0,0,5.0414,5.0416,0,5.0617,5.0619,5.0622,5.0598,5.0594,5.0591,5.0588,5.0795,5.0803,5.0812,0,0,0,0,0,0,0,0,0,0,0,0,0,5.0002,5.001,5.0414,5.0416,5.0419,5.0617,5.062,5.0622,5.0598,5.0594,5.059,5.0587,5.0792,5.0802,5.0813,0,0,0,0,0,0,0,0,0,0,0,0,0,5.0191,5.0012,5.0413,5.0431,5.0434,5.0616,5.062,5.0623,5.0599,5.0594,5.0589,5.0585,5.0789,5.0801,5.0814,5.0991,0,0,5.0853,5.0859,0,0,0,0,0,0,0,0,5.018,5.0206,5.0426,5.043,5.0434,5.0577,5.055,5.0747,5.06,5.0537,5.0588,5.0582,5.0726,5.0744,5.0793,5.1001,5.101,5.0854,5.0862,5.0868,5.0871,0,0,0,0,0,0,0,5.0167,5.0197,5.0494,5.0429,5.0434,5.0427,5.0449,5.0587,5.0656,5.0542,5.054,5.0565,5.0728,5.0781,5.0798,5.1013,5.0854,5.0865,5.0873,5.0878,5.1374,5.1379,0,0,0,0,0,0,5.015,5.0186,5.0488,5.05,5.0292,5.0439,5.0463,5.0536,5.0655,5.0668,5.0569,5.0563,5.0761,5.0783,5.0805,5.1018,5.0868,5.088,5.0887,5.1369,5.1375,5.1381,0,0,0,0,0,0,5.0141,5.0177,5.0479,5.0343,5.0381,5.0451,5.0534,5.0543,5.0595,5.0675,5.0687,5.061,5.0758,5.0787,5.0945,5.1025,5.0885,5.0897,5.1362,5.1371,5.1378,5.1448,0,0,0,0,0,0,5.0129,5.0174,5.0243,5.0345,5.0388,5.0617,5.0539,5.055,5.0618,5.0612,5.0717,5.073,5.0756,5.0926,5.0957,5.104,5.0907,5.1355,5.1366,5.1376,5.1439,5.1458,5.1474,0,0,0,0,0,5.0115,5.0255,5.0246,5.0283,5.0476,5.0622,5.0647,5.0674,5.0625,5.0694,5.0745,5.0727,5.1012,5.0942,5.0978,5.1066,5.135,5.1363,5.1375,5.1431,5.1454,5.1473,0,0,0,0,0,0,5.016,5.0268,5.026,5.0438,5.0521,5.0617,5.0705,5.0698,5.0797,5.0787,5.0817,5.0841,5.1,5.1049,5.0969,5.1242,5.1174,5.1194,5.1204,5.1227,5.1244,5.1228,5.0918,0,0,0,0,0,5.0191,5.0301,5.0389,5.0537,5.0579,5.0635,5.07,5.0714,5.0801,5.0836,5.0898,5.0983,5.1091,5.1162,5.1266,5.1446,5.1467,5.1524,5.1541,5.1555,5.1572,5.1668,5.1694,5.1422,5.1421,5.1421,0,0,5.0256,5.0328,5.0396,5.0548,5.0614,5.0726,5.0665,5.0787,5.087,5.0854,5.1006,5.1055,5.1152,5.1321,5.1398,5.1366,5.1652,5.1571,5.1581,5.1591,5.1684,5.1709,5.1732,5.143,5.1428,5.1427,0,0,5.043,5.0497,5.0626,5.0693,5.0794,5.083,5.0861,5.0959,5.0991,5.1144,5.1134,5.1233,5.142,5.1488,5.1547,5.1746,5.1732,5.1779,5.187,5.1963,5.1985,5.2004,5.2073,5.2098,5.1795,5.1796,5.1796,0,5.0497,5.0667,5.0694,5.0816,5.0883,5.0874,5.1004,5.1068,5.1197,5.1242,5.1205,5.1437,5.1502,5.1685,5.1734,5.1783,5.1818,5.1767,5.198,5.1999,5.2017,5.2083,5.211,5.18,5.18,5.1799,5.1799,0,5.0743,5.0861,5.0953,5.1078,5.1154,5.1281,5.1325,5.14,5.1407,5.1447,5.1602,5.1679,5.1797,5.1842,5.1851,5.2027,5.2004,5.1973,5.1905,5.2048,5.211,5.2136,5.1807,5.1806,5.1804,5.1803,0,0,5.0953,5.109,5.1123,5.1179,5.1288,5.1379,5.1504,5.162,5.1682,5.1771,5.1875,5.2033,5.2004,5.2071,5.2087,5.217,5.2319,5.2128,5.2131,5.216,5.2516,5.2538,5.2567,5.2311,5.2316,5.232,5.2507,0,5.1136,5.1357,5.1385,5.1581,5.1688,5.168,5.1789,5.1867,5.1907,5.2003,5.2047,5.2158,5.2113,5.2153,5.2234,5.2284,5.2391,5.2271,5.2407,5.2412,5.2382,5.26,5.2624,5.2797,5.2532,5.2537,5.254,0,5.1381,5.1476,5.1683,5.1776,5.1822,5.1919,5.2026,5.2119,5.2207,5.223,5.2304,5.2309,5.2436,5.2364,5.2539,5.2456,5.2514,5.2546,5.2554,5.2566,5.2484,5.2617,5.2853,5.2878,5.2579,5.2576,5.2573,0,5.151,5.1691,5.1837,5.1885,5.1998,5.2065,5.2115,5.2199,5.2266,5.236,5.2403,5.2511,5.2569,5.2652,5.2685,5.2629,5.2858,5.2788,5.2879,5.2878,5.2927,5.2923,5.3174,5.2966,5.2966,5.2965,5.2965,0,5.1712,5.1838,5.1896,5.1986,5.2127,5.2156,5.2294,5.2341,5.2415,5.2513,5.2513,5.2605,5.2644,5.2742,5.2768,5.2908,5.2935,5.2956,5.2962,5.2956,5.2953,5.2993,5.2981,5.2972,5.2971,5.297,5.2968,0,5.188,5.1925,5.2083,5.2176,5.2203,5.2302,5.2381,5.2467,5.2506,5.263,5.2661,5.2721,5.2836,5.2877,5.3017,5.3035,5.3196,5.3193,5.3167,5.3168,5.3256,5.3246,5.354,5.3579,5.3347,5.3349,5.3351,0,5.2005,5.2102,5.2205,5.2271,5.2323,5.2429,5.2498,5.253,5.2601,5.2708,5.2781,5.2895,5.2988,5.3171,5.3227,5.3333,5.3331,5.3427,5.3347,5.3337,5.3331,5.3324,5.3333,5.3441,5.3443,5.3445,5.3447,0,5.2222,5.2239,5.2338,5.2444,5.2526,5.2611,5.2694,5.2748,5.2792,5.2872,5.2989,5.3061,5.3203,5.3316,5.3424,5.3475,5.3468,5.3471,5.3498,5.3492,5.3473,5.3483,5.3206,5.3464,5.3463,5.3461,5.346,5.346,5.2372,5.2456,5.2542,5.2652,5.2717,5.2794,5.2879,5.2928,5.3027,5.3145,5.3158,5.3283,5.3367,5.3512,5.3567,5.3665,5.3639,5.3678,5.3688,5.3696,5.3702,5.3458,5.3685,5.3685,5.3685,5.3684,5.3684,0,5.2587,5.2641,5.2742,5.2857,5.2943,5.293,5.302,5.3092,5.3203,5.3282,5.3373,5.3507,5.3615,5.368,5.3789,5.3854,5.3854,5.3882,5.3877,5.3888,5.372,5.3685,5.388,5.388,5.388,5.388,5.388,5.388,5.2709,5.2851,5.2878,5.3052,5.3105,5.3228,5.3281,5.3351,5.3414,5.3563,5.3654,5.3695,5.3767,5.3881,5.398,5.3996,5.4035,5.4065,5.4079,5.392,5.39,5.3881,5.3848,5.4074,5.4074,5.4238,5.424,5.4241]}]]